Sheldon, IA

8:28 AM CDT on May 30, 2017 (GMT -0500)
Sheldon Municipal

Weather History for KSHL - June, 2012

Change the Weather History Date:

Monday, June 11, 2012

  Actual Average Record
Temperature  
Mean Temperature 66 °F -  
Max Temperature 75 °F 80 °F 95 °F (1976)
Min Temperature 57 °F 57 °F 38 °F (1958)
Cooling Degree Days 1    
Growing Degree Days 16 (Base 50)    
Moisture  
Dew Point 47 °F    
Average Humidity 56    
Maximum Humidity 94    
Minimum Humidity 27    
Precipitation  
Precipitation 0.00 in - - ()
Sea Level Pressure  
Sea Level Pressure 29.90 in    
Wind  
Wind Speed 10 mph (WNW)    
Max Wind Speed 28 mph    
Max Gust Speed 36 mph    
Visibility 10 miles    
Events      
Averages and records for this station are not official NWS values.
T = Trace of Precipitation, MM = Missing Value Source: NWS Daily Summary

Daily Weather History Graph

Daily Weather History Graph

Search for Another Location

Airport or City:

Trip Planner

Search our weather history database for the weather conditions in past years. The results will help you decide how hot, cold, wet, or windy it might be!

Date:

Astronomy

Jun. 11, 2012 Rise Set
Actual Time 5:42 AM CDT 9:03 PM CDT
Civil Twilight 5:07 AM CDT 9:38 PM CDT
Nautical Twilight 4:21 AM CDT 10:24 PM CDT
Astronomical Twilight 3:24 AM CDT 11:21 PM CDT
Moon 1:13 AM CDT (6/11) 1:44 PM CDT (6/11)
Length of Visible Light 16h 31m
Length of Day
15h 20m
Waning Gibbous, 47% of the Moon is Illuminated
Jun 11
Waning Gibbous
Jun 19
New
Jun 26
First Quarter
Jul 3
Full
Jul 10
Last Quarter

Hourly Weather History & Observations

Time (CDT) Temp. Dew Point Humidity Pressure Visibility Wind Dir Wind Speed Gust Speed Precip Events Conditions
12:15 AM 59.0 °F 55.4 °F 88% 29.80 in 10.0 mi SE 3.5 mph - N/A   Partly Cloudy
12:35 AM 59.0 °F 55.4 °F 88% 29.80 in 10.0 mi Calm Calm - N/A   Scattered Clouds
12:55 AM 59.0 °F 55.4 °F 88% 29.80 in 10.0 mi SE 3.5 mph - N/A   Scattered Clouds
1:15 AM 59.0 °F 55.4 °F 88% 29.79 in 10.0 mi Calm Calm - N/A   Mostly Cloudy
1:35 AM 59.0 °F 55.4 °F 88% 29.77 in 10.0 mi Calm Calm - N/A   Scattered Clouds
1:55 AM 57.2 °F 55.4 °F 94% 29.79 in 10.0 mi South 3.5 mph - N/A   Clear
2:15 AM 57.2 °F 55.4 °F 94% 29.77 in 10.0 mi SE 4.6 mph - N/A   Clear
2:35 AM 60.8 °F 55.4 °F 82% 29.78 in 10.0 mi SE 5.8 mph - N/A   Partly Cloudy
2:55 AM 59.0 °F 57.2 °F 94% 29.77 in 10.0 mi South 4.6 mph - N/A   Partly Cloudy
3:15 AM 59.0 °F 55.4 °F 88% 29.76 in 10.0 mi South 4.6 mph - N/A   Scattered Clouds
3:35 AM 60.8 °F 57.2 °F 88% 29.76 in 10.0 mi SSW 4.6 mph - N/A   Partly Cloudy
3:55 AM 59.0 °F 55.4 °F 88% 29.75 in 10.0 mi South 5.8 mph - N/A   Partly Cloudy
4:15 AM 59.0 °F 55.4 °F 88% 29.75 in 10.0 mi South 5.8 mph - N/A   Clear
4:35 AM 57.2 °F 55.4 °F 94% 29.76 in 10.0 mi South 6.9 mph - N/A   Clear
4:55 AM 59.0 °F 55.4 °F 88% 29.77 in 10.0 mi South 3.5 mph - N/A   Clear
5:15 AM 57.2 °F 55.4 °F 94% 29.78 in 10.0 mi SSW 5.8 mph - N/A   Clear
5:35 AM 59.0 °F 55.4 °F 88% 29.79 in 10.0 mi SSW 9.2 mph - N/A   Clear
5:55 AM 59.0 °F 55.4 °F 88% 29.79 in 10.0 mi SSW 9.2 mph - N/A   Clear
6:15 AM 59.0 °F 55.4 °F 88% 29.80 in 10.0 mi SW 10.4 mph - N/A   Clear
6:35 AM 59.0 °F 55.4 °F 88% 29.83 in 10.0 mi SW 12.7 mph - N/A   Clear
6:55 AM 60.8 °F 55.4 °F 82% 29.83 in 10.0 mi WSW 12.7 mph - N/A   Clear
7:15 AM 60.8 °F 53.6 °F 77% 29.83 in 10.0 mi WSW 16.1 mph - N/A   Clear
7:35 AM 62.6 °F 51.8 °F 68% 29.84 in 10.0 mi West 17.3 mph 23.0 mph N/A   Clear
7:55 AM 62.6 °F 50.0 °F 63% 29.85 in 10.0 mi WNW 17.3 mph 26.5 mph N/A   Clear
8:15 AM 62.6 °F 50.0 °F 63% 29.86 in 10.0 mi WNW 16.1 mph 26.5 mph N/A   Clear
8:35 AM 64.4 °F 50.0 °F 59% 29.87 in 10.0 mi WNW 13.8 mph 23.0 mph N/A   Clear
8:55 AM 64.4 °F 48.2 °F 56% 29.87 in 10.0 mi WNW 17.3 mph 25.3 mph N/A   Clear
9:15 AM 66.2 °F 48.2 °F 52% 29.88 in 10.0 mi WNW 15.0 mph 26.5 mph N/A   Clear
9:35 AM 66.2 °F 48.2 °F 52% 29.88 in 10.0 mi WNW 16.1 mph 24.2 mph N/A   Clear
9:55 AM 68.0 °F 48.2 °F 49% 29.88 in 10.0 mi WNW 16.1 mph 26.5 mph N/A   Clear
10:15 AM 68.0 °F 48.2 °F 49% 29.89 in 10.0 mi WNW 19.6 mph 28.8 mph N/A   Clear
10:35 AM 68.0 °F 48.2 °F 49% 29.89 in 10.0 mi WNW 18.4 mph 27.6 mph N/A   Clear
10:55 AM 69.8 °F 48.2 °F 46% 29.90 in 10.0 mi WNW 20.7 mph 29.9 mph N/A   Clear
11:15 AM 71.6 °F 50.0 °F 46% 29.91 in 10.0 mi WNW 15.0 mph 27.6 mph N/A   Partly Cloudy
11:35 AM 71.6 °F 48.2 °F 43% 29.91 in 10.0 mi WNW 18.4 mph 28.8 mph N/A   Scattered Clouds
11:55 AM 71.6 °F 48.2 °F 43% 29.92 in 10.0 mi WNW 20.7 mph 29.9 mph N/A   Partly Cloudy
12:15 PM 71.6 °F 48.2 °F 43% 29.92 in 10.0 mi WNW 21.9 mph 32.2 mph N/A   Partly Cloudy
12:35 PM 71.6 °F 48.2 °F 43% 29.92 in 10.0 mi WNW 19.6 mph 31.1 mph N/A   Scattered Clouds
12:55 PM 71.6 °F 48.2 °F 43% 29.93 in 10.0 mi WNW 20.7 mph 32.2 mph N/A   Partly Cloudy
1:15 PM 73.4 °F 48.2 °F 41% 29.93 in 10.0 mi WNW 19.6 mph 31.1 mph N/A   Scattered Clouds
1:35 PM 73.4 °F 48.2 °F 41% 29.93 in 10.0 mi WNW 21.9 mph 29.9 mph N/A   Partly Cloudy
1:55 PM 73.4 °F 46.4 °F 38% 29.93 in 10.0 mi WNW 24.2 mph 35.7 mph N/A   Partly Cloudy
2:15 PM 73.4 °F 46.4 °F 38% 29.93 in 10.0 mi WNW 21.9 mph 33.4 mph N/A   Partly Cloudy
2:35 PM 75.2 °F 46.4 °F 36% 29.93 in 10.0 mi WNW 23.0 mph 32.2 mph N/A   Partly Cloudy
2:55 PM 75.2 °F 42.8 °F 31% 29.93 in 10.0 mi NW 21.9 mph 31.1 mph N/A   Partly Cloudy
3:15 PM 75.2 °F 42.8 °F 31% 29.94 in 10.0 mi NW 26.5 mph 33.4 mph N/A   Partly Cloudy
3:35 PM 75.2 °F 42.8 °F 31% 29.94 in 10.0 mi WNW 27.6 mph - N/A   Partly Cloudy
3:55 PM 75.2 °F 41.0 °F 29% 29.96 in 10.0 mi WNW 18.4 mph 35.7 mph N/A   Partly Cloudy
4:15 PM 75.2 °F 42.8 °F 31% 29.96 in 10.0 mi NW 19.6 mph 33.4 mph N/A   Clear
4:35 PM 75.2 °F 41.0 °F 29% 29.97 in 10.0 mi WNW 23.0 mph 32.2 mph N/A   Clear
4:55 PM 75.2 °F 41.0 °F 29% 29.97 in 10.0 mi NW 26.5 mph 32.2 mph N/A   Clear
5:15 PM 75.2 °F 42.8 °F 31% 29.97 in 10.0 mi WNW 18.4 mph 31.1 mph N/A   Clear
5:35 PM 75.2 °F 42.8 °F 31% 29.97 in 10.0 mi WNW 17.3 mph 28.8 mph N/A   Clear
5:55 PM 75.2 °F 41.0 °F 29% 29.98 in 10.0 mi WNW 17.3 mph 32.2 mph N/A   Clear
6:15 PM 75.2 °F 39.2 °F 27% 29.98 in 10.0 mi WNW 17.3 mph 31.1 mph N/A   Clear
6:35 PM 73.4 °F 39.2 °F 29% 29.98 in 10.0 mi NW 21.9 mph 32.2 mph N/A   Clear
6:55 PM 73.4 °F 41.0 °F 31% 29.99 in 10.0 mi NW 12.7 mph 27.6 mph N/A   Clear
7:35 PM 71.6 °F 39.2 °F 31% 30.00 in 10.0 mi NNW 19.6 mph - N/A   Clear
7:55 PM 71.6 °F 37.4 °F 29% 30.00 in 10.0 mi NNW 16.1 mph 25.3 mph N/A   Clear
8:15 PM 69.8 °F 37.4 °F 31% 30.01 in 10.0 mi NNW 17.3 mph 23.0 mph N/A   Clear
8:35 PM 68.0 °F 37.4 °F 33% 30.01 in 10.0 mi NW 12.7 mph - N/A   Clear
8:55 PM 66.2 °F 37.4 °F 35% 30.02 in 10.0 mi NW 9.2 mph - N/A   Clear
9:15 PM 64.4 °F 39.2 °F 40% 30.03 in 10.0 mi NW 9.2 mph - N/A   Clear
9:35 PM 64.4 °F 39.2 °F 40% 30.03 in 10.0 mi WNW 8.1 mph - N/A   Clear
9:55 PM 62.6 °F 39.2 °F 42% 30.05 in 10.0 mi NW 8.1 mph - N/A   Clear
10:15 PM 60.8 °F 39.2 °F 45% 30.06 in 10.0 mi NW 8.1 mph - N/A   Clear
10:35 PM 62.6 °F 39.2 °F 42% 30.06 in 10.0 mi WNW 6.9 mph - N/A   Clear
10:55 PM 62.6 °F 39.2 °F 42% 30.07 in 10.0 mi NW 5.8 mph - N/A   Clear
11:15 PM 57.2 °F 39.2 °F 51% 30.07 in 10.0 mi NW 8.1 mph - N/A   Clear
11:35 PM 59.0 °F 39.2 °F 48% 30.08 in 10.0 mi NW 9.2 mph - N/A   Clear
11:55 PM 59.0 °F 39.2 °F 48% 30.08 in 10.0 mi NNW 9.2 mph - N/A   Clear